| time (UTC) | temp C | wind direction | speed KPH | gust KPH | rain 1hr cm | rain 24hr cm | rain mn cm | humidity % | barometer mb |
| 20260505051005 | 12 | 64 | 1.6 | 3.2 | 0.00 | 0.10 | 0.00 | 92 | 1008.9 |
| 20260505050505 | 12 | 61 | 1.6 | 4.8 | 0.00 | 0.10 | 0.00 | 92 | 1009.1 |
| 20260505041008 | 11 | 98 | 0.0 | 3.2 | 0.00 | 0.10 | 0.00 | 89 | 1009.0 |
| 20260505040505 | 11 | 94 | 0.0 | 3.2 | 0.00 | 0.10 | 0.00 | 89 | 1008.8 |
| 20260505040005 | 11 | 97 | 1.6 | 3.2 | 0.00 | 0.10 | 0.00 | 88 | 1009.0 |
| 20260505035504 | 11 | 111 | 1.6 | 3.2 | 0.00 | 0.10 | 0.00 | 88 | 1009.0 |
| 20260505035004 | 12 | 230 | 1.6 | 3.2 | 0.00 | 0.10 | 0.00 | 87 | 1009.1 |
| 20260505034005 | 12 | 353 | 0.0 | 3.2 | 0.00 | 0.10 | 0.00 | 87 | 1009.1 |
| 20260505033505 | 12 | 10 | 1.6 | 3.2 | 0.00 | 0.10 | 0.00 | 86 | 1009.0 |
| 20260505033005 | 12 | 9 | 1.6 | 3.2 | 0.00 | 0.10 | 0.00 | 86 | 1009.0 |
| 20260505032505 | 12 | 25 | 1.6 | 6.4 | 0.00 | 0.10 | 0.00 | 87 | 1009.0 |
| 20260505031504 | 11 | 40 | 4.8 | 8.0 | 0.00 | 0.10 | 0.00 | 88 | 1008.8 |
| 20260505030505 | 11 | 47 | 4.8 | 8.0 | 0.00 | 0.10 | 0.00 | 90 | 1009.0 |
| 20260505030005 | 11 | 58 | 6.4 | 8.0 | 0.00 | 0.10 | 0.00 | 90 | 1008.9 |
| 20260505025505 | 11 | 58 | 4.8 | 8.0 | 0.00 | 0.10 | 0.00 | 91 | 1009.1 |
| 20260505025005 | 11 | 57 | 4.8 | 8.0 | 0.00 | 0.10 | 0.00 | 91 | 1009.2 |
| 20260505024504 | 11 | 57 | 3.2 | 8.0 | 0.00 | 0.10 | 0.00 | 91 | 1009.3 |
| 20260505024005 | 11 | 59 | 3.2 | 8.0 | 0.00 | 0.10 | 0.00 | 91 | 1009.4 |
| 20260505023505 | 11 | 56 | 3.2 | 4.8 | 0.00 | 0.10 | 0.00 | 91 | 1009.3 |
| 20260505023005 | 11 | 53 | 3.2 | 4.8 | 0.00 | 0.10 | 0.00 | 91 | 1009.6 |
| 20260505022005 | 11 | 63 | 1.6 | 4.8 | 0.00 | 0.10 | 0.00 | 90 | 1009.4 |
| 20260505021504 | 11 | 76 | 1.6 | 4.8 | 0.00 | 0.10 | 0.00 | 90 | 1009.7 |
| 20260505021004 | 11 | 73 | 1.6 | 4.8 | 0.00 | 0.10 | 0.00 | 90 | 1009.8 |
| 20260505020505 | 11 | 80 | 1.6 | 4.8 | 0.00 | 0.10 | 0.00 | 89 | 1009.7 |
| 20260505015505 | 11 | 60 | 1.6 | 3.2 | 0.00 | 0.10 | 0.00 | 90 | 1009.9 |
| 20260505015005 | 11 | 61 | 1.6 | 4.8 | 0.00 | 0.10 | 0.00 | 90 | 1009.9 |
| 20260505014506 | 11 | 57 | 3.2 | 6.4 | 0.00 | 0.10 | 0.00 | 90 | 1009.8 |
| 20260505014004 | 11 | 62 | 3.2 | 6.4 | 0.00 | 0.10 | 0.00 | 90 | 1009.8 |
| 20260505013505 | 11 | 63 | 3.2 | 4.8 | 0.00 | 0.10 | 0.00 | 90 | 1009.8 |
| 20260505013005 | 11 | 72 | 4.8 | 6.4 | 0.00 | 0.10 | 0.00 | 90 | 1010.0 |
| 20260505012505 | 11 | 78 | 3.2 | 6.4 | 0.00 | 0.10 | 0.00 | 90 | 1010.0 |
| 20260505012005 | 11 | 89 | 1.6 | 4.8 | 0.00 | 0.10 | 0.00 | 90 | 1010.0 |
| 20260505011505 | 11 | 79 | 1.6 | 4.8 | 0.00 | 0.10 | 0.00 | 90 | 1010.1 |
| 20260505005504 | 11 | 18 | 0.0 | 3.2 | 0.00 | 0.10 | 0.00 | 89 | 1010.3 |
| 20260505005005 | 11 | 11 | 1.6 | 3.2 | 0.00 | 0.10 | 0.00 | 88 | 1010.5 |
| 20260505004505 | 11 | 19 | 1.6 | 3.2 | 0.00 | 0.10 | 0.00 | 88 | 1010.7 |
| 20260505004005 | 11 | 23 | 3.2 | 6.4 | 0.00 | 0.10 | 0.00 | 87 | 1010.7 |
| 20260505003505 | 11 | 25 | 4.8 | 8.0 | 0.00 | 0.10 | 0.00 | 88 | 1010.6 |
| 20260505003005 | 11 | 34 | 4.8 | 9.7 | 0.00 | 0.10 | 0.00 | 88 | 1010.7 |
| 20260505002505 | 11 | 44 | 6.4 | 11.3 | 0.00 | 0.10 | 0.00 | 88 | 1010.7 |
| 20260505002004 | 12 | 55 | 6.4 | 11.3 | 0.00 | 0.10 | 0.00 | 88 | 1010.7 |
| 20260505001505 | 12 | 62 | 4.8 | 9.7 | 0.00 | 0.10 | 0.00 | 88 | 1010.6 |
| 20260505001005 | 12 | 64 | 3.2 | 8.0 | 0.00 | 0.10 | 0.00 | 88 | 1010.8 |
| 20260505000005 | 12 | 63 | 3.2 | 4.8 | 0.00 | 0.10 | 0.00 | 89 | 1011.0 |
| 20260504235004 | 12 | 60 | 3.2 | 6.4 | 0.00 | 0.10 | 0.00 | 89 | 1011.2 |
| 20260504234504 | 12 | 52 | 3.2 | 4.8 | 0.00 | 0.10 | 0.00 | 88 | 1011.2 |
| 20260504234005 | 12 | 55 | 1.6 | 4.8 | 0.00 | 0.10 | 0.00 | 86 | 1011.3 |
| 20260504233505 | 12 | 51 | 1.6 | 4.8 | 0.00 | 0.10 | 0.00 | 86 | 1011.1 |
| 20260504233005 | 12 | 54 | 3.2 | 4.8 | 0.00 | 0.10 | 0.00 | 86 | 1011.4 |
| 20260504232504 | 12 | 49 | 3.2 | 4.8 | 0.00 | 0.10 | 0.00 | 86 | 1011.6 |
| 20260504232004 | 12 | 40 | 3.2 | 4.8 | 0.00 | 0.10 | 0.00 | 86 | 1011.4 |
| 20260504231504 | 12 | 33 | 1.6 | 4.8 | 0.00 | 0.10 | 0.00 | 86 | 1011.6 |
| 20260504231004 | 12 | 14 | 3.2 | 4.8 | 0.00 | 0.10 | 0.00 | 86 | 1011.6 |
| 20260504230005 | 12 | 359 | 1.6 | 4.8 | 0.00 | 0.10 | 0.00 | 87 | 1011.6 |
| 20260504225504 | 12 | 8 | 3.2 | 4.8 | 0.00 | 0.10 | 0.00 | 90 | 1011.8 |
| 20260504225004 | 12 | 14 | 4.8 | 6.4 | 0.00 | 0.10 | 0.00 | 90 | 1011.9 |
| 20260504224504 | 12 | 13 | 4.8 | 6.4 | 0.00 | 0.10 | 0.00 | 90 | 1011.8 |
| 20260504224005 | 12 | 22 | 3.2 | 6.4 | 0.00 | 0.10 | 0.00 | 90 | 1012.0 |
| 20260504223505 | 12 | 21 | 3.2 | 4.8 | 0.00 | 0.10 | 0.00 | 90 | 1012.0 |
| 20260504222505 | 12 | 6 | 3.2 | 6.4 | 0.00 | 0.10 | 0.00 | 91 | 1011.8 |
| 20260504222007 | 12 | 4 | 3.2 | 8.0 | 0.00 | 0.10 | 0.00 | 91 | 1012.1 |
| 20260504221504 | 12 | 10 | 6.4 | 11.3 | 0.00 | 0.10 | 0.00 | 92 | 1011.7 |
| 20260504220505 | 12 | 22 | 6.4 | 11.3 | 0.00 | 0.10 | 0.00 | 94 | 1011.7 |
| 20260504220005 | 12 | 32 | 6.4 | 11.3 | 0.00 | 0.10 | 0.00 | 94 | 1011.6 |
| 20260504215505 | 12 | 40 | 6.4 | 11.3 | 0.00 | 0.10 | 0.10 | 94 | 1011.8 |
| 20260504215004 | 12 | 45 | 6.4 | 11.3 | 0.00 | 0.10 | 0.10 | 95 | 1011.6 |
| 20260504214004 | 12 | 50 | 6.4 | 9.7 | 0.00 | 0.10 | 0.10 | 95 | 1012.0 |
| 20260504213504 | 12 | 54 | 4.8 | 8.0 | 0.00 | 0.10 | 0.10 | 95 | 1012.2 |
| 20260504212505 | 12 | 57 | 4.8 | 8.0 | 0.00 | 0.10 | 0.10 | 95 | 1012.4 |
| 20260504212005 | 12 | 61 | 4.8 | 8.0 | 0.00 | 0.10 | 0.10 | 95 | 1012.6 |
| 20260504211504 | 12 | 63 | 4.8 | 6.4 | 0.00 | 0.10 | 0.10 | 95 | 1012.7 |
| 20260504211005 | 12 | 67 | 3.2 | 6.4 | 0.00 | 0.10 | 0.10 | 95 | 1012.7 |
| 20260504210505 | 12 | 72 | 3.2 | 6.4 | 0.00 | 0.10 | 0.10 | 90 | 1012.7 |
| 20260504210005 | 12 | 80 | 1.6 | 4.8 | 0.00 | 0.10 | 0.10 | 89 | 1012.7 |
| 20260504205505 | 12 | 72 | 0.0 | 3.2 | 0.00 | 0.10 | 0.10 | 89 | 1012.8 |
| 20260504205005 | 12 | 49 | 0.0 | 0.0 | 0.00 | 0.10 | 0.10 | 88 | 1012.8 |
| 20260504204005 | 13 | 26 | 0.0 | 1.6 | 0.00 | 0.10 | 0.10 | 88 | 1012.9 |
| 20260504203005 | 12 | 26 | 3.2 | 8.0 | 0.00 | 0.10 | 0.10 | 89 | 1012.6 |
| 20260504202505 | 12 | 29 | 4.8 | 8.0 | 0.00 | 0.10 | 0.10 | 89 | 1012.6 |
| 20260504202005 | 12 | 26 | 4.8 | 8.0 | 0.00 | 0.10 | 0.10 | 89 | 1012.6 |
| 20260504201004 | 13 | 35 | 4.8 | 8.0 | 0.00 | 0.10 | 0.10 | 89 | 1012.5 |
| 20260504200507 | 13 | 43 | 4.8 | 9.7 | 0.00 | 0.10 | 0.10 | 89 | 1012.4 |
| 20260504200005 | 13 | 38 | 4.8 | 9.7 | 0.00 | 0.10 | 0.10 | 89 | 1012.4 |
| 20260504195005 | 13 | 30 | 3.2 | 6.4 | 0.00 | 0.10 | 0.10 | 89 | 1012.4 |
| 20260504194505 | 13 | 31 | 3.2 | 6.4 | 0.00 | 0.10 | 0.10 | 90 | 1012.5 |
| 20260504193505 | 13 | 21 | 4.8 | 9.7 | 0.00 | 0.10 | 0.10 | 90 | 1012.4 |
| 20260504193005 | 13 | 20 | 4.8 | 9.7 | 0.00 | 0.10 | 0.10 | 90 | 1012.4 |
| 20260504192504 | 13 | 21 | 3.2 | 19.3 | 0.00 | 0.10 | 0.10 | 90 | 1012.4 |
| 20260504192004 | 13 | 23 | 3.2 | 19.3 | 0.00 | 0.10 | 0.10 | 90 | 1012.5 |
| 20260504191504 | 13 | 23 | 4.8 | 19.3 | 0.00 | 0.10 | 0.10 | 90 | 1012.3 |
| 20260504191005 | 13 | 24 | 3.2 | 8.0 | 0.00 | 0.10 | 0.10 | 90 | 1012.4 |
| 20260504190505 | 13 | 17 | 3.2 | 6.4 | 0.00 | 0.10 | 0.10 | 90 | 1012.4 |
| 20260504190005 | 13 | 16 | 1.6 | 4.8 | 0.00 | 0.10 | 0.10 | 90 | 1012.3 |
| 20260504185505 | 13 | 359 | 1.6 | 3.2 | 0.00 | 0.10 | 0.10 | 90 | 1012.4 |
| 20260504185004 | 13 | 358 | 1.6 | 3.2 | 0.00 | 0.10 | 0.10 | 89 | 1012.4 |
| 20260504184504 | 13 | 5 | 3.2 | 3.2 | 0.00 | 0.10 | 0.10 | 89 | 1012.4 |
| 20260504184004 | 13 | 18 | 1.6 | 3.2 | 0.00 | 0.10 | 0.10 | 88 | 1012.5 |
| 20260504183505 | 13 | 37 | 1.6 | 3.2 | 0.00 | 0.10 | 0.10 | 88 | 1012.4 |
| 20260504182505 | 13 | 51 | 3.2 | 6.4 | 0.00 | 0.10 | 0.10 | 88 | 1012.4 |
| 20260504182005 | 14 | 67 | 3.2 | 4.8 | 0.00 | 0.10 | 0.10 | 89 | 1012.6 |
| 20260504181505 | 14 | 68 | 3.2 | 6.4 | 0.00 | 0.10 | 0.10 | 89 | 1012.5 |
| 20260504181005 | 14 | 63 | 3.2 | 6.4 | 0.00 | 0.10 | 0.10 | 89 | 1012.3 |
| 20260504180505 | 14 | 59 | 3.2 | 6.4 | 0.00 | 0.10 | 0.10 | 89 | 1012.4 |
| 20260504180005 | 14 | 62 | 1.6 | 4.8 | 0.00 | 0.10 | 0.10 | 89 | 1012.6 |
| 20260504175507 | 14 | 64 | 3.2 | 4.8 | 0.00 | 0.10 | 0.10 | 89 | 1012.6 |
| 20260504175004 | 14 | 61 | 3.2 | 4.8 | 0.03 | 0.10 | 0.10 | 89 | 1012.7 |
| 20260504174004 | 15 | 63 | 3.2 | 9.7 | 0.05 | 0.10 | 0.10 | 89 | 1012.8 |
| 20260504173508 | 15 | 62 | 3.2 | 9.7 | 0.05 | 0.10 | 0.10 | 89 | 1013.0 |
| 20260504172508 | 15 | 54 | 3.2 | 6.4 | 0.05 | 0.10 | 0.10 | 90 | 1012.9 |
| 20260504172005 | 15 | 49 | 3.2 | 6.4 | 0.05 | 0.10 | 0.10 | 90 | 1013.1 |
| 20260504171505 | 15 | 34 | 3.2 | 6.4 | 0.05 | 0.08 | 0.08 | 88 | 1013.1 |
| 20260504171005 | 15 | 15 | 1.6 | 4.8 | 0.05 | 0.08 | 0.08 | 88 | 1013.4 |
| 20260504170504 | 15 | 356 | 1.6 | 3.2 | 0.05 | 0.08 | 0.08 | 87 | 1013.6 |
| 20260504151005 | 17 | 226 | 3.2 | 6.4 | 0.00 | 0.00 | 0.00 | 65 | 1013.4 |
| 20260504150505 | 17 | 229 | 3.2 | 6.4 | 0.00 | 0.00 | 0.00 | 64 | 1013.3 |
| 20260504141004 | 19 | 254 | 4.8 | 8.0 | 0.00 | 0.00 | 0.00 | 53 | 1013.0 |
| 20260504140504 | 19 | 259 | 4.8 | 9.7 | 0.00 | 0.00 | 0.00 | 53 | 1013.1 |
| 20260504130504 | 20 | 248 | 3.2 | 8.0 | 0.00 | 0.00 | 0.00 | 47 | 1012.9 |
| 20260504100504 | 19 | 262 | 8.0 | 12.9 | 0.00 | 0.00 | 0.00 | 49 | 1013.6 |
| 20260504082004 | 17 | 320 | 1.6 | 4.8 | 0.00 | 0.00 | 0.00 | 54 | 1014.0 |
| 20260504081004 | 17 | 246 | 0.0 | 3.2 | 0.00 | 0.00 | 0.00 | 55 | 1014.2 |
| 20260504080504 | 17 | 252 | 1.6 | 4.8 | 0.00 | 0.00 | 0.00 | 55 | 1014.0 |